Theta_e
319 317 319 319 318 318 317 318 321 322 323 329 331 327 321 321 324 327 326 325 329 330 327 326 324 320 317 313 310 309 309 309 308 307 305 305 304 302 302 302 302 302 302 303 304 304 306 308 312 316 319 321 321 322 322 322 323 323 323 323 323 323 322 320 320 320 319 320 318 316 316 317 317 316 316 316 315 314 314 313 314 315 316 315 313 312 312
321 318 319 320 318 319 318 315 315 317 321 326 326 324 322 322 324 325 324 326 328 327 326 325 321 316 312 309 308 307 307 306 306 305 304 304 303 302 301 301 301 301 301 301 302 302 303 304 306 311 316 320 321 321 321 321 321 322 322 322 321 321 321 320 320 320 320 319 317 316 317 317 317 316 314 313 314 314 314 314 316 318 318 316 314 314 313
322 319 319 319 317 319 321 318 314 315 321 325 327 326 324 324 325 323 324 327 327 325 324 321 316 311 309 308 307 306 305 305 305 304 303 302 301 301 301 301 300 300 301 301 301 301 301 302 304 306 310 314 315 315 316 317 319 321 322 322 322 321 321 321 320 320 320 320 319 319 319 318 319 318 316 315 316 317 317 318 319 320 320 317 315 314 314
323 318 319 321 319 318 322 321 315 314 320 324 324 322 321 323 325 325 326 328 327 324 321 317 312 310 309 308 307 306 305 305 304 304 303 301 301 301 301 301 300 300 300 301 302 301 301 301 302 303 304 306 306 307 307 308 311 314 316 316 316 316 316 318 320 320 321 321 321 320 320 320 320 320 320 320 321 321 322 322 321 321 320 318 316 315 314
323 318 319 323 322 320 322 319 312 311 315 318 321 321 319 320 323 324 325 326 324 321 317 314 312 310 309 308 307 307 306 305 304 303 302 301 302 302 302 301 300 300 301 301 301 301 301 301 301 302 302 303 303 303 303 303 304 306 306 306 306 306 308 310 312 314 316 317 317 318 318 319 319 320 320 321 322 322 322 323 323 322 322 321 320 319 318
323 319 319 322 321 320 319 315 311 310 312 315 319 319 316 317 320 321 322 322 321 318 315 312 310 309 308 307 307 307 307 306 304 303 302 301 301 302 302 302 301 301 301 301 301 301 302 302 301 302 301 301 301 301 302 302 302 302 302 302 302 302 302 303 304 305 307 308 308 309 310 312 313 314 314 315 316 317 318 319 321 321 321 321 321 321 321
321 318 319 322 322 319 316 314 311 309 310 312 315 316 314 315 318 319 319 319 317 314 311 308 307 307 306 305 304 305 305 305 304 302 301 301 301 301 302 302 301 301 301 301 301 301 302 302 302 302 301 301 301 301 301 301 301 301 301 300 300 301 301 301 301 301 302 302 302 303 303 304 306 306 307 308 309 309 310 312 313 314 315 316 316 318 319
318 320 321 321 319 315 314 314 312 310 310 311 314 318 315 313 315 316 315 314 311 309 308 307 306 305 303 302 302 303 302 302 303 302 301 300 300 300 301 301 301 301 301 301 301 301 302 302 302 302 302 302 301 301 300 301 300 300 300 300 300 300 300 300 300 300 300 301 301 301 301 301 302 302 303 304 304 304 305 306 307 308 309 310 311 312 313
317 320 319 317 317 316 314 313 311 310 310 310 312 317 315 311 312 312 310 310 309 308 308 306 304 304 304 303 302 302 301 300 300 301 300 299 299 299 299 300 300 300 300 300 302 303 302 302 302 302 302 302 302 301 300 300 300 300 300 300 300 299 299 299 299 299 299 299 300 300 300 300 300 300 301 301 302 302 303 304 304 304 305 304 305 306 307
317 319 319 318 320 318 315 313 311 310 311 309 308 313 315 312 311 310 309 309 309 308 308 306 306 307 307 304 302 302 301 298 298 299 299 298 299 299 299 300 300 300 300 300 301 302 302 302 302 302 302 302 301 300 300 300 300 300 300 300 299 299 299 299 299 299 299 299 299 299 299 299 299 299 299 300 300 300 300 301 301 301 302 302 302 303 304
317 319 319 319 319 316 312 310 308 308 310 309 309 314 318 313 309 309 309 309 308 308 307 307 309 311 309 304 302 303 302 299 299 299 299 299 299 300 300 300 300 300 300 300 301 301 301 301 301 301 301 301 301 300 300 300 299 299 299 299 299 299 299 299 299 299 299 299 299 299 299 299 299 299 299 299 299 299 299 299 300 300 300 300 301 301 302
315 316 316 315 314 312 308 306 306 306 307 309 313 319 319 313 309 308 308 308 309 308 307 308 310 310 308 304 302 303 301 299 299 299 299 299 300 301 301 300 300 300 300 300 301 301 301 301 301 300 300 300 300 300 300 300 299 299 299 299 299 299 299 299 299 299 299 299 299 299 299 299 299 299 299 299 299 299 299 299 299 299 299 299 300 300 300
314 314 315 314 312 310 306 305 305 306 307 312 317 318 314 310 310 308 306 307 308 307 307 309 308 306 305 303 303 302 300 299 298 298 298 299 300 300 301 301 300 300 300 300 301 301 301 301 300 300 300 299 299 299 299 299 299 298 298 299 299 298 298 298 298 298 298 298 298 298 298 298 298 299 299 299 299 298 299 299 299 299 299 299 299 299 299
312 311 312 313 312 308 304 303 304 306 311 316 315 310 307 307 310 309 306 306 306 306 306 306 305 303 302 302 301 301 299 299 298 296 296 298 298 299 300 300 300 300 300 300 301 300 300 300 300 300 299 299 299 299 298 298 298 298 298 298 298 298 298 297 297 297 297 298 298 298 298 298 298 298 298 298 298 298 298 298 298 298 298 298 298 298 298
310 311 312 313 313 307 303 304 307 309 311 312 308 305 305 305 306 306 305 304 303 303 303 302 301 301 301 300 300 299 298 298 297 296 297 297 298 298 299 300 300 301 300 300 300 300 300 300 299 299 299 299 298 298 298 298 298 298 298 298 297 298 297 297 297 297 297 297 297 297 297 297 297 297 297 297 298 297 298 298 297 298 298 298 297 298 298
310 312 311 309 308 305 302 305 307 306 305 305 305 305 305 305 303 303 303 302 301 301 301 302 302 301 301 301 299 299 299 298 296 296 297 297 298 298 299 300 300 300 300 300 300 300 299 299 299 299 299 298 298 298 298 298 298 298 298 298 297 297 297 297 296 297 296 297 297 297 297 297 297 297 297 296 296 296 296 296 296 296 296 296 296 297 297
306 308 307 305 304 303 302 303 303 302 302 302 302 302 303 304 304 302 302 302 302 301 300 301 302 301 301 301 299 299 300 298 296 296 297 297 298 299 299 300 300 300 300 300 299 299 299 299 299 299 299 298 298 298 298 298 298 298 297 297 297 296 296 296 296 296 296 296 296 296 296 296 296 296 296 295 295 295 295 296 296 296 296 296 295 296 295
304 305 304 303 303 302 302 302 302 302 302 302 301 300 301 302 303 302 302 302 302 301 300 300 300 300 300 300 299 299 299 298 296 297 297 297 298 299 299 300 299 299 299 299 299 299 298 298 298 298 298 298 298 298 298 298 298 298 297 297 296 296 296 296 296 296 295 295 295 295 295 295 295 295 295 295 295 296 295 296 296 296 296 296 295 295 295
306 306 304 302 303 303 301 301 301 301 301 301 301 301 300 301 302 302 302 301 301 301 301 300 300 299 299 299 298 298 299 298 296 296 297 297 298 298 298 299 299 299 299 298 298 298 298 298 298 298 298 298 298 298 298 298 298 297 297 297 297 297 297 297 296 296 295 295 295 295 295 296 295 296 296 295 296 296 296 296 296 295 295 295 295 295 295
307 306 303 302 303 302 302 302 302 301 302 301 301 301 301 302 303 302 302 302 302 302 302 301 301 300 299 299 299 298 298 297 295 296 296 297 297 297 297 298 298 299 299 298 298 298 298 298 298 298 298 298 298 298 298 298 297 297 297 297 297 297 297 297 297 296 295 295 295 296 296 296 296 296 295 295 295 295 295 295 295 295 295 295 295 295 295
304 303 302 302 303 302 302 302 302 301 302 301 301 302 301 302 303 302 302 302 302 303 302 301 302 302 299 298 298 298 297 296 295 296 297 297 297 297 297 298 298 298 298 299 298 298 298 298 297 297 297 298 298 298 298 298 297 297 297 297 297 297 297 297 296 295 295 295 296 296 296 296 295 295 294 294 294 294 294 294 294 295 295 295 295 295 295
306 305 303 304 306 305 302 302 302 301 301 301 301 302 302 302 302 302 302 301 299 299 299 298 299 300 299 297 296 296 295 295 295 296 297 296 297 297 297 298 298 298 298 298 298 298 298 297 297 297 297 298 298 298 298 298 297 297 297 297 297 297 297 296 295 295 295 296 296 297 296 295 294 293 293 292 292 293 293 293 293 294 294 294 294 294 294
308 308 305 303 305 305 302 302 302 301 301 302 303 302 302 302 300 300 302 303 301 299 297 295 296 297 296 296 295 294 293 295 296 296 297 297 297 297 298 298 298 298 298 298 298 298 297 297 297 297 297 298 298 298 298 298 297 297 297 297 297 297 297 296 296 296 296 296 296 296 295 294 293 293 292 292 292 292 293 293 293 293 293 293 294 294 294
305 306 305 303 304 304 302 303 304 301 299 301 303 303 302 300 297 297 299 301 302 300 297 295 295 296 295 294 294 294 293 295 296 296 296 297 297 297 298 298 298 298 298 298 297 297 297 297 297 297 297 298 298 298 298 298 297 297 298 297 297 296 296 297 296 296 296 296 296 295 294 294 293 293 292 292 292 292 292 292 292 293 293 293 293 293 293
304 304 303 302 302 304 302 301 301 299 296 298 300 300 299 297 296 296 297 297 297 298 296 294 295 296 295 295 294 294 294 295 295 296 296 296 297 297 297 297 297 297 297 297 297 297 297 297 297 297 297 298 298 298 298 298 297 298 298 297 297 296 296 296 296 296 296 296 295 294 294 294 293 293 293 293 292 292 292 292 292 293 293 293 293 293 293
301 300 301 300 299 301 300 299 300 299 297 297 298 297 296 296 295 296 296 296 295 296 295 294 294 295 296 296 295 295 295 296 296 296 296 296 296 296 296 296 296 296 296 296 296 296 296 296 296 297 297 298 298 298 298 298 298 298 297 297 297 296 297 296 296 296 296 295 295 294 294 293 293 293 293 293 292 292 292 292 292 293 294 294 294 294 294
299 300 301 300 299 299 299 300 300 298 296 296 297 296 295 295 295 294 294 295 295 295 295 295 295 295 295 295 295 295 295 296 296 295 296 296 296 296 296 295 295 295 295 295 295 296 296 296 296 297 297 297 298 298 298 298 298 298 297 297 297 297 297 296 296 296 296 295 294 294 293 293 293 293 293 293 293 293 292 292 293 293 294 294 294 294 294
301 300 301 302 301 300 299 298 297 297 296 296 296 295 294 294 294 294 295 294 293 294 295 295 295 295 294 294 295 295 295 295 296 295 296 296 295 295 295 295 295 295 294 294 294 295 296 296 296 297 297 297 297 297 298 298 298 298 297 297 297 297 297 296 296 296 295 294 294 294 294 294 294 294 294 293 293 293 293 293 293 293 294 294 295 294 295
302 301 302 302 299 298 298 297 297 297 297 296 295 295 295 296 299 299 298 294 293 293 294 294 294 295 295 294 295 294 294 294 295 295 295 295 295 295 295 295 295 294 293 293 294 295 295 296 296 297 297 297 297 297 297 298 298 298 297 297 297 297 297 296 295 295 294 294 294 294 295 294 294 295 295 294 294 294 294 294 293 294 294 295 294 294 295
300 301 302 300 296 296 298 299 300 301 299 296 295 295 294 296 302 303 298 294 292 293 293 293 293 294 295 295 295 295 295 295 295 295 295 295 295 295 295 295 295 294 294 293 293 294 295 295 296 296 297 297 297 297 297 297 298 298 297 297 297 297 296 296 295 294 294 294 295 295 295 295 295 295 295 295 294 294 294 293 293 293 294 294 294 294 295
300 301 303 303 301 301 302 301 302 303 300 295 295 298 297 297 303 304 298 293 292 292 293 294 294 294 295 295 295 295 295 295 295 295 295 295 294 294 295 294 294 294 294 293 293 293 294 295 296 296 297 297 297 296 297 297 297 298 297 297 296 296 296 295 295 294 294 294 295 295 295 295 295 295 295 295 295 294 293 293 293 293 293 294 294 295 295
301 300 301 302 302 303 303 302 302 302 300 297 297 299 298 298 301 302 297 294 293 293 293 294 294 295 295 295 294 294 294 294 294 294 293 294 294 294 294 294 294 293 293 293 293 293 293 294 296 296 297 297 297 296 296 297 297 298 297 296 296 296 296 295 294 294 294 295 295 295 295 295 295 295 295 295 294 294 293 293 293 294 294 294 294 295 295
301 300 300 301 301 301 301 300 300 301 300 299 297 295 293 293 294 295 294 293 293 293 294 295 295 295 295 294 294 294 293 292 291 290 290 290 291 291 292 292 292 292 292 292 292 292 292 294 296 296 297 297 297 296 296 296 297 297 297 296 296 296 295 295 294 294 294 295 295 295 294 294 295 295 295 295 294 293 293 293 294 294 294 293 293 294 294
301 302 302 301 301 301 299 299 300 302 301 298 295 293 293 293 293 293 293 293 293 294 294 295 295 295 295 294 293 292 291 289 288 288 288 288 289 290 291 291 292 292 292 292 292 292 293 294 295 296 297 297 297 296 295 296 297 297 296 296 296 296 295 294 294 294 294 294 294 294 294 294 295 295 295 294 294 293 294 294 294 294 294 294 294 294 294
296 297 297 296 297 298 297 296 299 301 302 300 297 295 294 293 293 293 293 294 294 295 295 295 295 295 294 293 292 290 289 288 288 287 288 289 291 291 292 292 292 292 291 292 292 293 294 295 296 297 297 297 296 296 296 296 297 296 296 296 296 295 294 294 294 294 294 294 294 293 293 294 295 295 295 294 294 294 294 293 293 294 294 294 294 294 294
295 295 295 296 296 296 295 295 295 297 297 297 297 296 295 295 295 294 294 294 295 295 295 295 294 294 293 292 291 290 289 288 288 288 289 291 292 292 292 292 291 290 290 291 293 294 295 296 297 297 297 296 296 296 296 296 296 296 296 296 296 295 294 294 294 293 293 293 293 293 293 293 294 295 294 294 293 293 293 293 293 293 293 293 293 293 293
295 295 295 295 295 295 295 295 296 296 296 296 296 296 296 296 296 296 295 295 295 295 295 295 294 294 293 292 291 290 289 289 289 290 291 291 292 291 291 291 290 289 289 291 293 295 296 296 296 296 296 296 296 296 296 296 296 296 296 296 296 295 294 293 293 293 293 293 292 292 292 293 294 294 294 293 293 292 292 293 293 293 293 293 292 292 292
296 295 295 295 295 295 295 295 296 296 296 296 296 296 296 296 296 296 296 295 295 295 295 294 294 293 293 292 291 290 289 289 290 291 292 291 291 291 290 291 291 290 290 291 293 295 295 295 294 294 295 296 296 295 295 295 296 296 296 296 295 294 294 293 293 293 293 292 292 292 292 293 293 294 293 293 293 292 292 293 293 292 292 292 292 292 292
296 296 296 296 296 296 296 296 296 296 296 296 296 296 296 296 296 296 295 295 295 295 294 294 293 293 292 291 291 291 291 290 290 291 292 291 290 290 291 291 291 290 291 291 292 294 294 294 293 294 296 296 296 295 295 295 295 296 296 296 295 294 294 293 292 292 292 292 292 292 293 293 293 293 293 293 293 292 292 292 292 291 291 291 292 291 291
296 296 296 297 297 296 296 297 297 297 297 297 296 296 296 296 296 295 295 295 295 294 294 294 293 292 292 292 291 291 292 291 291 292 292 291 290 289 290 290 290 290 291 292 292 293 293 293 293 294 295 295 294 294 294 294 295 295 296 296 295 295 294 293 292 292 292 292 292 292 293 293 293 293 293 293 293 292 292 292 292 291 291 291 291 291 291
296 296 296 297 297 296 297 297 297 296 297 297 297 297 296 296 296 296 295 295 295 294 294 294 293 293 293 293 292 292 292 292 292 292 291 291 290 290 289 290 291 291 292 293 292 292 292 292 293 293 294 294 293 292 293 294 294 294 295 295 295 294 293 292 292 292 292 291 292 293 293 293 293 293 293 293 292 292 292 292 292 292 291 291 291 291 291
297 296 296 296 296 296 297 297 296 296 297 296 297 297 297 296 296 297 296 296 295 295 294 294 293 293 294 294 293 292 292 292 292 292 291 292 292 291 290 291 292 293 293 293 292 292 292 292 292 292 293 294 293 292 293 294 294 294 294 295 295 294 293 292 292 292 291 291 291 293 293 293 293 293 293 292 292 292 292 292 292 292 292 292 292 292 292
297 297 296 296 296 297 297 297 297 297 297 297 297 297 296 296 296 296 296 297 296 295 295 294 294 293 294 293 293 292 292 292 292 292 291 292 292 292 291 291 292 293 293 293 293 293 294 293 291 291 292 293 292 291 292 294 294 293 294 295 295 294 293 292 292 291 291 291 291 292 293 293 293 293 292 292 292 292 292 292 292 292 292 292 292 292 291
297 297 296 297 297 297 297 297 296 296 297 297 297 297 296 296 296 296 296 296 296 295 295 294 294 294 294 293 293 292 292 292 292 291 291 291 291 291 292 292 292 292 293 293 293 293 293 292 291 291 292 293 292 291 292 294 294 294 294 295 295 294 293 292 292 292 291 291 291 292 292 292 292 292 292 292 292 292 292 292 291 291 292 292 292 291 291
297 297 297 297 297 297 297 297 297 297 297 297 297 297 296 296 296 296 296 296 296 296 295 295 294 294 294 294 293 293 292 292 291 290 290 290 290 291 291 291 291 292 292 293 293 293 292 291 290 291 293 293 291 291 292 293 294 294 295 295 295 294 293 292 292 292 291 291 291 291 292 292 292 292 292 292 292 292 292 292 291 291 291 291 291 291 291
297 297 297 297 297 297 297 297 297 297 297 297 297 297 297 296 296 296 296 296 296 296 296 295 295 295 294 294 294 293 292 292 291 291 290 291 291 291 291 291 291 291 292 292 293 293 291 290 290 292 292 292 291 291 292 293 294 295 295 295 295 294 293 292 292 292 292 291 291 291 291 291 291 291 291 291 291 291 292 292 291 291 291 291 290 290 290
297 297 297 297 297 297 297 297 297 297 297 296 296 296 297 296 296 296 296 296 296 296 296 296 295 295 295 295 294 293 293 292 292 291 291 291 291 291 290 290 290 291 291 292 292 292 290 289 290 292 291 290 290 291 292 293 294 295 295 295 295 294 293 292 292 292 292 291 291 291 291 291 290 290 290 290 291 291 291 291 291 291 291 290 290 290 289
298 298 298 298 298 297 297 297 297 297 296 296 296 296 297 296 296 296 296 296 296 296 296 296 296 296 296 296 295 294 293 293 292 292 291 291 291 290 290 290 290 290 291 291 291 289 289 289 291 291 289 289 290 292 293 293 293 294 294 295 295 294 294 293 292 292 292 291 291 291 291 291 291 290 290 290 290 290 291 291 291 291 290 290 290 290 289
298 298 298 298 298 297 297 296 296 297 297 297 296 296 296 296 296 297 296 296 296 296 296 296 296 296 296 296 295 294 294 293 292 292 291 291 291 291 291 290 290 290 290 290 290 289 289 289 289 288 287 288 291 292 292 292 292 292 293 293 294 294 294 293 292 292 292 291 291 291 291 291 291 291 290 290 290 290 290 290 290 290 290 290 290 289 289
298 298 298 298 297 297 297 296 296 297 297 296 295 295 295 296 296 296 296 296 296 296 296 296 296 296 296 296 296 295 294 294 293 292 291 291 291 291 290 290 290 290 290 289 288 288 288 287 287 287 288 289 291 292 292 292 291 291 291 291 292 293 293 293 292 292 292 291 291 291 291 291 291 291 291 291 291 290 290 290 290 290 290 289 289 289 289
297 297 298 298 297 297 297 297 297 297 296 296 295 295 295 295 295 295 296 296 296 296 296 296 295 296 296 296 295 295 295 294 293 292 291 291 291 291 290 290 290 290 289 287 286 287 287 287 287 288 290 291 291 291 291 291 291 290 290 289 290 292 293 293 292 292 292 291 291 291 291 291 291 291 291 290 290 290 290 290 290 290 289 289 289 289 288
297 297 297 297 296 296 297 297 297 297 296 296 295 295 295 295 295 295 295 296 296 296 296 295 295 295 296 296 295 295 295 294 293 293 292 291 291 291 291 290 290 290 289 287 286 287 288 288 288 290 291 291 291 291 291 290 290 290 289 288 289 290 291 292 293 292 292 291 291 291 291 290 290 290 290 290 290 290 289 289 289 289 289 288 288 288 288
Wind_Speed
5 7 7 7 4 5 6 7 6 6 6 7 8 1 3 1 3 4 5 8 7 6 8 7 6 8 8 8 8 8 8 10 10 9 10 11 11 12 13 12 11 12 11 10 13 17 20 21 20 18 17 15 16 16 16 16 15 15 16 19 20 17 16 16 15 15 15 13 11 10 12 12 11 10 10 11 11 11 12 12 10 8 8 10 12 12 11
6 9 8 7 5 4 6 9 9 8 5 6 8 3 2 3 2 3 7 8 4 3 6 7 7 9 10 9 8 8 10 11 11 12 12 11 11 12 13 12 12 11 11 11 14 17 22 24 22 19 17 18 19 19 17 17 17 16 15 16 15 14 16 16 14 13 12 11 10 10 11 11 10 9 9 9 10 10 10 10 9 7 7 10 11 11 12
4 8 8 6 5 5 7 9 12 11 8 5 6 4 4 5 5 5 9 8 4 3 5 8 9 9 10 11 10 9 10 10 12 13 12 11 11 12 11 10 11 11 11 13 15 17 22 25 22 19 18 19 20 20 19 21 21 20 19 18 16 17 18 17 14 13 12 10 9 8 8 9 10 9 7 6 6 7 7 8 7 6 7 10 12 12 12
2 6 7 6 5 5 7 10 12 13 9 5 4 4 3 3 6 8 8 5 3 3 7 10 10 10 11 11 10 10 8 9 12 13 11 10 11 12 10 8 10 11 11 12 14 18 24 27 26 22 21 23 23 22 23 26 27 27 25 24 22 22 21 20 17 15 13 11 11 10 10 10 10 8 7 7 7 6 5 3 2 2 2 6 9 10 12
1 4 6 5 4 3 3 5 7 7 5 4 4 4 5 3 4 7 4 2 3 6 10 11 9 9 11 10 8 8 7 8 10 11 10 10 10 11 9 8 10 10 10 14 19 22 25 27 27 25 24 26 25 24 26 30 32 32 32 31 30 29 27 26 24 21 18 16 14 13 13 12 11 10 9 9 9 7 6 5 4 3 2 1 2 4 6
1 3 5 4 2 0 1 2 3 4 4 4 3 4 6 6 2 4 3 4 6 7 9 12 10 9 10 8 7 7 5 5 8 8 8 8 8 9 8 8 9 9 13 19 23 25 26 26 26 26 27 28 27 26 30 33 33 33 34 34 33 32 31 30 29 28 25 23 22 20 18 16 15 14 12 11 11 9 7 6 5 4 4 3 1 0 2
1 1 3 2 1 1 1 2 4 4 3 3 4 6 7 7 3 6 7 6 8 9 9 11 12 11 11 10 10 9 6 3 5 7 7 6 7 8 7 7 9 11 16 20 21 23 25 26 27 28 28 29 29 29 31 32 32 32 34 34 34 32 31 31 30 29 27 26 25 23 21 19 18 17 16 15 14 12 9 8 7 6 5 5 4 3 2
0 1 2 1 2 1 3 3 5 5 4 4 4 5 7 8 5 4 7 6 7 12 12 11 12 12 12 11 10 9 7 5 3 6 6 6 7 8 8 10 11 13 17 20 20 21 22 25 27 27 26 28 30 31 32 32 31 31 33 33 33 32 31 30 28 27 26 25 24 23 23 22 21 20 17 16 14 12 10 9 8 6 6 5 5 4 4
1 2 2 0 0 1 2 2 4 3 2 3 2 2 4 6 6 2 7 7 7 12 12 11 12 13 13 10 7 7 7 5 3 6 7 7 8 10 12 15 15 15 18 21 22 21 22 24 24 23 22 24 26 29 30 30 31 32 32 31 31 31 30 29 27 25 23 23 23 22 21 22 24 23 20 17 15 13 11 10 9 8 7 7 7 7 6
1 3 2 1 1 1 1 1 3 2 2 3 2 0 2 4 5 4 7 8 8 11 13 12 11 10 11 8 2 3 4 2 2 7 8 9 12 14 15 17 18 18 20 21 22 22 23 23 21 20 19 19 22 26 27 27 30 31 31 29 29 29 28 27 26 25 22 21 21 21 20 21 22 21 20 19 17 15 13 12 12 11 10 9 9 9 8
2 3 3 1 1 0 1 4 6 5 3 4 2 0 2 3 3 3 7 8 5 6 9 7 4 5 8 5 2 1 2 1 4 7 7 9 13 15 16 17 17 18 19 20 21 22 22 21 20 20 21 21 24 25 24 25 26 27 25 23 23 23 23 22 22 22 22 20 20 20 19 18 18 18 18 18 17 15 14 13 12 12 11 11 10 10 10
2 3 2 1 0 0 3 6 9 7 3 4 2 0 2 2 3 3 6 9 6 3 3 3 3 3 6 6 5 3 4 3 6 9 9 10 13 15 16 16 16 17 18 20 21 21 21 20 19 21 23 25 26 25 25 26 26 24 22 19 19 19 18 18 18 18 18 18 17 17 16 15 15 14 15 15 15 14 13 12 11 10 11 11 11 11 11
3 3 2 1 1 2 4 7 9 8 3 1 1 1 3 1 4 4 4 7 7 3 3 4 4 4 5 7 7 5 4 3 6 10 13 15 16 16 15 15 16 19 20 20 21 21 20 19 20 21 24 27 27 27 27 27 25 23 21 20 20 19 19 19 18 17 16 16 15 14 13 12 12 11 12 12 12 12 12 11 10 10 10 11 11 11 12
2 2 2 1 1 2 5 9 8 5 1 1 2 2 3 3 3 6 5 4 5 4 4 5 6 5 6 7 7 5 4 4 6 11 15 18 18 17 16 16 17 19 20 20 20 20 19 19 20 21 25 28 27 26 26 24 22 20 20 19 19 19 19 19 18 17 16 15 13 12 12 11 10 10 10 10 10 11 11 10 10 10 11 11 12 12 12
2 2 3 2 1 3 8 9 6 3 2 2 3 2 4 5 4 6 6 4 4 6 7 7 8 7 6 6 5 4 3 3 7 12 16 17 17 18 18 16 16 18 19 19 19 19 19 20 20 21 25 27 26 24 23 21 19 18 18 18 18 18 18 18 17 16 15 14 12 12 12 11 11 11 10 10 10 10 11 11 11 11 12 13 14 15 15
1 2 2 1 2 5 8 5 2 2 2 2 1 1 4 5 5 4 5 4 4 8 10 9 8 7 6 5 4 4 4 4 7 12 16 18 18 18 18 16 15 16 17 17 18 19 19 20 20 20 22 24 24 22 19 17 17 17 17 17 18 18 17 16 16 15 14 13 12 11 12 12 12 12 12 12 12 12 12 13 13 14 14 15 16 17 18
2 3 1 2 2 4 5 4 3 3 4 4 4 5 6 5 4 4 5 7 6 7 9 10 8 6 6 5 4 4 4 4 7 12 15 18 19 19 18 16 15 15 17 17 18 20 20 20 20 19 19 21 21 19 16 15 16 17 17 17 18 18 18 17 16 14 13 12 12 11 12 12 12 12 13 13 13 13 13 14 14 15 15 16 17 18 19
4 4 2 1 1 3 4 5 4 5 6 5 6 8 8 6 5 5 6 8 8 7 7 8 8 6 6 5 4 4 4 5 9 13 15 16 18 19 18 16 15 15 17 18 19 20 20 19 19 18 18 18 17 16 14 15 16 16 17 18 19 18 18 17 16 16 15 14 13 13 12 12 12 13 13 14 14 14 15 16 16 17 16 17 18 19 21
3 3 2 2 3 3 4 6 6 7 8 7 7 8 8 7 7 8 8 9 8 7 7 8 7 6 6 6 5 4 5 6 8 11 13 14 17 18 16 15 14 14 16 18 19 19 18 16 16 17 16 16 14 13 13 14 16 16 18 18 18 18 18 16 15 16 17 17 15 14 14 14 14 14 15 15 16 16 17 18 19 19 18 18 19 20 22
3 2 2 3 4 4 4 4 5 6 7 7 7 7 7 8 9 10 10 10 8 7 6 7 6 5 5 6 6 5 5 6 8 11 13 15 16 15 13 12 12 13 14 16 17 16 15 14 13 14 15 15 13 11 12 14 15 16 17 17 17 18 17 15 15 16 17 17 16 16 16 16 16 16 17 17 17 17 17 17 19 19 19 19 19 20 22
4 2 0 1 4 5 5 4 4 4 5 6 6 6 7 8 8 8 10 10 9 8 7 6 7 5 4 5 7 6 5 6 9 11 14 15 14 12 11 10 11 12 13 13 14 14 13 12 11 10 12 14 13 10 10 12 14 16 17 17 17 16 15 15 15 15 16 16 16 17 18 18 17 17 17 18 18 18 17 16 16 17 18 19 19 20 20
1 2 3 3 4 2 2 1 2 3 3 6 7 6 6 6 7 7 7 7 7 8 7 8 9 6 4 6 9 8 6 8 10 12 13 13 12 12 11 10 11 11 12 12 12 12 10 10 10 9 9 11 12 10 9 10 12 14 15 16 17 16 15 15 15 15 15 16 16 17 17 17 18 19 19 18 17 17 17 16 14 14 16 17 18 19 20
4 6 6 4 4 3 3 4 1 2 3 5 6 5 4 5 5 7 7 6 6 6 6 9 12 9 6 8 11 9 8 9 11 12 11 11 11 11 11 11 11 10 9 8 8 8 7 7 8 8 8 10 11 8 6 7 10 12 15 17 18 17 16 16 16 16 16 17 17 18 17 17 19 21 22 22 20 17 16 15 14 13 14 16 16 17 18
1 2 4 5 4 4 3 4 3 0 2 5 6 3 3 3 4 7 8 7 7 6 5 8 13 15 13 13 14 11 9 10 12 12 10 10 11 10 10 9 9 8 7 5 4 4 4 4 5 6 8 10 9 7 6 7 8 11 14 15 16 16 15 16 17 17 17 17 17 17 16 16 18 20 21 23 23 21 18 17 16 15 15 15 17 17 18
3 3 3 4 4 5 3 2 2 2 5 7 5 3 3 4 5 9 8 7 8 10 8 7 10 15 15 14 14 14 11 10 11 11 10 10 9 8 8 7 6 5 4 3 1 0 1 3 5 5 8 10 8 5 5 5 6 10 12 12 13 13 13 14 15 15 16 16 15 15 15 16 18 19 19 20 22 24 24 23 21 19 18 19 20 22 22
6 6 6 6 6 5 4 4 3 2 5 9 6 3 3 4 6 8 9 8 9 13 14 13 12 13 15 16 15 14 13 11 10 9 9 9 8 7 6 4 2 2 1 2 3 4 4 4 5 5 6 9 6 3 3 4 5 8 10 10 10 11 12 13 14 14 15 15 14 14 15 17 18 18 19 19 20 22 25 27 27 27 26 25 25 25 24
5 7 8 7 5 3 2 2 4 4 5 9 9 6 5 6 9 10 9 8 9 11 14 17 16 15 15 16 15 13 12 12 12 10 9 10 9 8 6 5 5 4 4 4 6 6 5 4 4 4 4 7 6 2 1 3 6 8 9 9 9 10 11 11 12 13 13 13 12 13 15 17 17 17 18 18 19 20 22 24 26 29 30 30 27 25 23
4 4 6 6 4 2 2 4 7 6 4 7 9 9 10 10 10 10 8 7 9 10 13 17 18 17 16 16 15 14 14 14 14 13 12 12 11 10 9 8 8 7 5 5 7 7 5 3 4 4 2 5 5 2 0 2 6 8 8 9 10 10 10 10 10 11 11 10 10 11 14 15 16 17 17 18 19 20 20 20 22 24 27 28 27 25 23
4 4 5 5 7 7 6 6 6 4 4 4 6 8 10 9 7 6 5 6 9 10 11 12 14 14 15 15 14 14 14 14 14 14 14 13 12 11 11 10 9 8 7 6 7 8 6 5 5 6 4 3 3 2 2 4 5 7 9 10 10 9 9 10 10 10 10 10 11 11 12 14 15 17 17 18 18 19 19 20 20 21 22 24 25 26 25
2 2 4 4 4 7 7 5 5 5 3 2 2 4 6 7 6 5 5 7 8 9 9 10 9 9 10 12 13 13 14 14 15 15 15 14 12 12 12 11 10 10 9 8 8 7 7 6 7 7 6 4 2 2 3 4 5 8 10 11 10 9 9 10 9 9 9 11 12 12 12 13 14 15 16 17 18 18 18 17 17 17 18 20 21 22 22
3 5 5 5 5 6 5 3 4 4 2 1 2 2 4 6 6 5 4 5 7 8 9 9 9 9 11 13 14 13 13 12 13 13 13 13 13 13 12 12 11 10 10 9 8 7 7 7 9 9 7 5 4 4 4 5 6 8 10 11 9 8 9 9 8 8 9 10 10 11 13 14 14 15 15 15 15 15 14 13 13 14 15 16 16 16 17
5 6 5 4 4 5 4 2 1 0 1 3 3 3 3 4 5 6 6 6 8 11 11 11 12 13 13 12 11 11 10 9 9 11 12 12 13 12 12 11 11 11 11 10 10 9 8 8 10 11 9 6 5 5 5 6 7 8 10 10 8 8 10 9 7 7 9 9 9 11 14 15 14 14 13 12 11 11 11 11 12 13 13 13 13 14 15
7 3 1 1 3 5 4 2 2 2 2 2 4 6 7 5 6 9 11 10 10 13 14 14 14 13 12 11 10 9 8 8 9 11 12 12 12 11 11 11 11 11 12 11 11 12 11 11 12 12 9 7 6 6 7 8 7 8 9 9 8 8 10 8 5 6 8 8 8 11 13 14 13 11 10 9 8 8 9 10 12 13 13 11 11 13 15
5 4 5 6 5 5 4 3 2 2 3 3 4 6 7 7 8 11 13 12 12 13 14 14 13 12 11 11 10 9 8 8 10 10 10 9 9 9 9 9 10 11 12 12 12 13 12 11 10 10 9 8 7 7 8 8 7 7 8 7 7 9 9 7 5 6 6 6 8 10 12 13 12 8 6 6 7 7 8 10 11 13 12 11 11 12 13
2 2 3 3 4 6 8 7 6 5 4 2 2 4 6 7 8 10 12 14 14 14 14 13 12 11 12 12 10 9 10 10 10 11 10 8 6 7 8 9 10 11 11 12 12 11 10 9 9 9 8 8 8 8 8 7 7 7 7 6 6 8 9 7 7 7 6 6 7 9 11 13 11 6 4 5 7 8 9 9 10 11 10 10 10 11 10
2 2 2 2 3 6 8 8 8 8 7 5 4 4 4 4 6 8 11 14 14 13 13 12 12 13 13 12 10 9 9 9 10 9 8 7 6 7 8 9 9 10 10 10 8 7 7 7 8 8 8 8 9 9 8 7 6 6 5 5 6 8 9 8 8 7 6 6 7 9 10 11 8 3 3 5 7 8 9 10 10 9 8 8 9 10 10
4 1 1 2 4 6 7 7 7 8 6 5 6 5 4 5 5 6 8 12 13 13 13 13 13 14 14 11 8 7 7 8 8 7 7 7 7 8 10 10 9 9 9 6 3 4 6 7 7 7 8 9 9 8 7 6 6 5 4 5 6 8 9 9 9 8 7 7 8 9 9 7 3 1 3 5 7 8 10 11 10 8 7 7 8 9 9
5 4 3 2 4 5 6 5 5 5 4 5 6 7 7 7 6 5 7 10 13 14 14 14 14 13 12 10 7 7 7 7 7 7 7 7 8 10 11 11 10 9 7 4 2 5 6 6 5 6 7 8 8 8 6 5 5 5 4 5 5 8 9 9 8 8 7 7 9 9 7 3 1 3 4 4 6 8 9 9 8 6 5 6 8 8 9
4 5 5 5 5 5 5 4 3 3 3 4 6 8 7 6 5 4 6 9 11 14 14 14 13 12 11 9 8 8 8 7 7 8 8 9 10 11 12 11 9 7 5 4 4 6 6 5 4 4 5 7 9 8 6 6 6 5 5 5 5 7 9 9 8 7 7 7 8 8 4 1 2 3 3 3 6 7 8 7 6 5 6 7 8 8 9
3 5 6 6 5 6 6 6 5 4 3 3 4 6 6 5 4 4 5 7 10 13 14 14 14 13 12 11 10 9 8 7 7 8 9 9 10 12 12 10 6 5 5 5 6 7 7 6 5 5 6 7 7 7 7 7 6 6 7 7 6 7 8 8 7 6 6 6 6 5 2 0 1 2 2 3 5 6 6 5 5 5 6 7 8 9 9
3 4 5 6 7 7 8 8 8 8 7 5 4 4 5 5 4 3 4 6 8 11 14 15 15 15 14 13 12 10 8 8 8 9 9 9 9 11 11 7 2 3 7 8 8 8 8 7 6 7 8 8 7 7 7 8 7 7 8 8 7 6 7 6 5 5 5 4 4 3 2 0 1 2 2 3 4 5 5 4 4 3 5 7 8 9 10
6 5 6 7 9 10 10 11 11 10 10 9 9 7 6 5 5 4 4 4 6 9 13 15 17 17 16 14 13 12 11 11 11 11 11 10 10 10 9 6 2 2 7 10 11 10 10 9 8 9 10 10 9 8 7 8 9 9 10 10 8 6 6 5 4 4 4 4 2 1 1 1 1 2 1 2 3 3 3 3 2 2 5 7 8 8 9
6 7 8 9 11 12 11 11 11 11 12 13 12 10 8 8 8 8 7 5 6 9 12 14 16 18 18 16 14 14 14 13 13 13 13 13 12 11 11 9 5 3 5 8 10 10 10 10 9 10 11 11 9 8 8 9 10 11 11 11 9 6 5 4 3 3 3 2 2 2 2 2 2 2 1 2 3 2 1 2 2 4 6 7 7 8 9
5 6 7 9 11 12 11 11 11 11 12 13 13 11 8 7 8 8 8 7 6 9 12 14 16 19 20 18 16 16 16 14 13 13 13 13 12 12 12 12 10 8 7 8 10 10 10 10 10 10 11 10 9 9 9 10 11 12 12 12 11 8 5 4 3 2 2 1 2 2 1 1 1 1 1 2 2 2 1 2 3 4 5 6 6 7 8
6 7 7 7 8 10 12 12 12 11 11 13 13 10 7 7 7 8 7 7 8 9 12 14 15 17 18 19 18 17 17 14 12 11 11 11 11 10 9 9 10 12 13 13 13 12 12 11 10 11 11 10 9 10 10 10 10 12 13 14 12 9 7 5 4 2 1 1 2 2 1 1 1 1 1 1 2 2 2 2 3 4 4 5 5 6 6
8 9 8 7 8 9 10 9 10 10 10 10 10 10 9 9 9 9 7 8 10 11 12 14 16 16 16 17 18 18 17 16 14 12 11 11 11 9 8 8 9 11 13 15 16 14 12 11 11 11 11 11 10 10 10 9 10 11 14 15 13 11 9 7 6 4 2 2 3 4 3 2 2 1 1 1 2 2 2 1 3 4 4 4 4 5 5
10 9 8 7 7 8 7 7 8 9 8 7 9 10 10 9 8 8 8 10 11 12 11 13 14 14 14 15 16 17 16 16 15 14 14 13 13 11 9 8 7 8 10 13 14 13 11 11 12 11 11 10 9 10 10 9 9 10 13 15 15 13 11 9 8 7 5 4 4 4 4 3 3 3 2 2 2 1 1 2 4 4 4 4 3 3 3
10 9 8 7 7 8 8 7 8 9 9 10 11 11 9 7 6 7 8 9 10 9 9 10 12 11 11 12 14 16 15 14 13 12 11 12 12 11 10 7 6 6 7 10 11 10 9 10 11 11 10 9 9 9 9 9 8 8 11 14 15 15 14 11 10 9 8 6 5 5 5 4 4 4 4 4 3 2 1 2 3 4 4 4 3 3 2
9 9 9 8 8 8 7 7 8 10 11 12 11 8 6 6 5 6 6 7 7 6 7 8 9 9 9 10 13 15 16 15 13 11 10 9 9 9 9 7 6 6 8 9 10 9 9 10 10 10 10 9 9 9 9 8 7 7 9 11 13 15 15 13 11 10 9 8 7 7 6 5 5 5 5 5 4 3 3 3 3 4 4 4 3 3 2
10 9 8 8 7 6 5 6 8 9 9 8 6 4 4 5 6 5 4 4 4 4 6 7 6 6 6 7 9 13 16 17 15 13 11 9 8 8 8 8 7 7 8 9 9 9 8 9 9 9 9 10 9 10 10 8 7 7 9 10 12 14 15 15 13 12 11 10 9 8 8 7 7 6 7 6 5 4 5 6 5 5 4 4 3 2 2
8 6 5 4 5 5 5 6 7 7 5 4 4 3 3 3 4 2 2 2 4 6 6 7 7 6 5 6 6 8 11 14 14 13 12 10 8 7 7 8 7 7 8 8 8 8 7 7 8 9 9 9 9 10 10 8 8 9 10 10 11 13 15 16 15 14 12 11 10 10 9 9 8 8 8 8 7 6 5 6 6 6 5 4 4 3 2
4 3 2 3 4 5 5 6 6 5 4 4 4 3 2 1 1 3 4 3 3 4 5 6 6 6 6 6 6 6 8 10 12 13 13 10 8 7 8 8 8 8 8 7 8 8 8 8 9 9 8 8 9 9 9 9 9 9 9 9 9 11 13 15 16 15 13 12 11 11 11 10 10 10 10 10 9 8 7 7 7 7 6 5 6 5 5
Wind_Direction
343 4 356 354 33 78 46 23 23 26 38 64 74 68 272 180 153 214 206 163 158 157 141 136 131 117 108 98 96 97 91 88 87 81 70 63 59 56 54 50 46 45 43 39 39 42 48 55 62 70 81 96 112 123 132 136 136 133 139 154 162 163 156 151 156 168 174 181 184 171 167 175 178 179 186 192 196 200 204 209 214 226 239 235 225 221 218
356 2 358 3 30 64 47 25 11 1 20 84 92 79 21 66 97 183 144 131 111 103 124 123 112 112 109 102 96 91 87 88 87 81 72 63 57 56 56 53 49 46 41 37 36 36 40 46 52 62 76 88 97 107 117 120 120 120 124 134 136 124 117 127 144 158 168 178 179 173 180 186 177 170 177 191 202 208 210 212 219 239 250 238 229 224 217
344 352 359 8 31 61 54 24 6 360 3 35 62 50 37 54 60 86 110 109 78 73 111 107 104 106 104 101 96 89 88 90 87 81 76 72 69 66 63 59 53 49 43 38 36 35 38 43 48 56 68 79 84 89 93 95 102 113 119 120 114 104 105 118 132 139 142 147 143 147 165 171 166 166 170 176 192 205 211 217 234 256 254 237 233 228 218
299 341 346 338 354 37 47 23 0 353 354 360 10 12 16 79 110 105 106 118 124 124 111 103 103 103 97 96 94 92 93 92 91 93 91 88 84 79 74 66 59 55 47 40 39 40 42 47 50 53 62 72 73 73 77 81 90 100 104 103 99 94 96 105 112 116 121 126 120 116 120 126 135 142 140 138 146 156 162 167 199 265 247 230 231 231 226
269 330 333 332 350 5 11 6 348 330 319 319 332 5 8 18 114 126 139 155 137 132 121 110 100 93 93 93 91 91 95 94 97 103 105 100 95 87 82 73 67 62 55 52 51 50 50 52 54 56 63 69 68 70 75 77 81 86 86 86 84 81 82 87 91 93 99 105 106 103 105 109 116 122 123 128 130 122 111 106 102 90 87 132 203 224 230
237 307 333 355 38 165 253 345 342 308 299 325 11 42 12 353 47 127 131 116 115 122 122 116 108 94 88 87 79 73 76 99 112 111 107 104 97 87 80 75 75 72 64 61 58 57 58 59 61 62 65 68 69 71 74 75 75 75 75 75 74 72 71 72 76 79 82 84 84 85 90 97 103 105 104 106 108 102 94 94 96 92 82 74 76 358 262
188 314 18 64 154 243 291 349 346 328 316 351 53 62 28 5 34 104 103 110 120 114 106 107 105 93 80 69 60 56 47 53 107 106 98 95 90 82 74 70 74 77 74 69 63 60 61 64 66 65 64 66 68 69 69 70 69 68 68 67 65 65 64 63 64 67 68 68 67 66 67 75 83 87 86 86 87 85 83 82 80 79 73 62 54 34 343
192 31 38 126 172 309 331 350 356 351 348 1 25 40 23 3 354 88 100 99 109 110 108 107 105 99 88 70 49 43 37 19 56 94 93 90 89 86 86 83 78 77 79 78 73 67 65 65 67 67 66 67 69 68 68 67 66 65 64 63 61 60 58 56 56 57 57 57 56 52 49 49 53 58 61 64 65 63 65 68 67 67 63 46 32 23 8
128 94 39 11 148 11 6 6 357 349 333 345 17 23 9 2 348 50 106 109 114 115 113 112 113 107 92 73 39 22 29 18 41 79 79 81 84 83 86 89 86 83 83 81 78 71 65 62 63 65 66 66 68 69 69 68 67 66 63 61 61 60 57 54 52 49 48 48 48 45 41 36 35 37 38 40 40 36 35 35 33 31 29 20 9 360 351
97 105 85 35 21 31 38 320 305 298 252 231 182 104 355 13 16 54 107 117 125 126 123 126 131 114 88 78 45 5 14 357 68 78 79 87 90 88 87 88 87 86 83 80 78 75 70 65 63 64 63 63 65 67 68 68 69 68 66 63 62 61 58 55 53 50 46 44 43 42 38 31 26 24 24 25 25 22 18 16 11 7 2 358 355 349 342
61 98 103 91 106 107 328 312 311 308 234 208 186 76 352 25 47 86 112 112 111 120 122 130 146 119 101 113 178 277 304 238 115 97 94 93 90 90 90 89 87 87 87 86 85 83 81 78 76 77 78 76 72 69 68 68 67 67 67 64 62 60 57 53 51 48 45 42 41 41 38 32 24 18 15 15 14 12 11 9 5 359 350 344 345 344 341
44 85 94 46 82 312 326 324 319 311 241 182 155 9 321 41 80 108 124 124 122 100 81 58 17 76 120 143 165 192 234 210 124 113 110 98 91 88 87 88 91 91 89 89 87 85 85 87 87 87 85 82 79 79 78 76 72 71 70 66 62 60 55 50 46 41 39 38 38 39 39 36 30 23 16 12 8 7 8 8 4 359 350 344 339 337 337
32 65 90 3 295 279 324 325 312 307 296 170 158 233 279 355 90 106 116 128 129 102 64 67 44 53 108 129 138 158 195 181 119 109 105 99 94 91 88 89 93 90 85 84 83 82 82 83 84 84 84 83 83 84 84 82 79 76 71 64 59 55 51 48 45 41 38 37 36 38 39 37 34 30 24 19 12 9 8 6 4 1 355 348 339 333 331
26 68 92 15 269 267 334 327 310 312 351 198 239 273 317 350 87 111 107 117 124 100 85 101 104 102 110 118 124 139 161 149 110 97 92 88 87 89 94 97 94 86 80 78 78 76 74 75 78 82 85 85 84 82 82 82 80 74 65 58 52 47 43 42 41 39 38 37 37 37 35 33 32 31 28 21 13 10 7 3 1 359 353 349 342 333 329
39 49 48 41 231 301 334 331 323 359 55 221 258 329 14 22 55 96 98 96 117 113 103 103 109 108 101 100 108 112 114 111 99 92 86 81 79 81 89 97 96 87 81 78 74 69 68 73 79 85 86 85 83 81 80 78 72 63 58 54 50 47 44 40 36 33 30 29 31 30 28 27 27 26 22 15 7 4 0 357 356 353 349 346 342 335 330
47 66 55 99 240 295 327 347 38 44 344 295 289 54 52 42 41 70 85 73 86 111 115 109 101 95 85 74 72 76 76 82 87 86 82 79 76 73 79 91 95 88 83 78 71 69 72 78 83 86 86 85 84 83 81 73 62 56 53 50 47 46 44 41 37 34 29 24 23 21 17 16 14 13 11 6 1 359 357 355 354 351 349 347 342 339 335
73 97 130 197 250 301 335 19 61 60 35 32 64 87 83 59 37 51 81 78 70 87 106 109 102 95 89 74 56 63 76 76 77 79 79 78 76 73 75 84 89 84 80 77 75 76 78 80 80 78 76 79 83 83 77 64 54 50 46 43 41 40 38 37 35 32 27 23 20 15 11 9 8 8 6 2 1 1 359 358 356 352 350 347 343 340 337
73 61 44 40 25 14 30 43 46 59 63 58 69 82 81 73 65 65 76 83 76 71 84 97 101 103 104 99 96 99 95 83 82 84 81 78 78 76 74 77 80 80 80 81 82 82 81 78 75 71 68 72 78 78 68 53 45 41 38 36 35 33 31 31 31 29 25 21 17 14 12 11 11 10 6 2 359 357 355 353 351 347 344 341 339 336 334
81 62 360 357 21 27 48 63 63 61 63 65 73 82 87 90 88 82 80 84 81 76 81 93 102 112 120 120 117 109 102 96 91 90 85 78 75 75 73 71 73 78 83 86 87 85 82 77 75 72 68 68 72 69 55 44 37 32 31 32 30 27 25 24 24 22 20 17 15 13 11 8 4 0 358 354 351 348 347 345 342 339 336 333 332 331 330
76 129 256 332 20 16 13 57 83 81 79 79 78 87 97 94 87 86 88 89 86 77 78 87 95 102 114 119 115 104 94 95 93 91 89 84 78 74 70 68 72 81 88 89 88 86 81 76 73 70 62 58 60 58 46 37 29 26 28 28 25 22 21 20 18 14 11 9 6 3 360 356 354 353 352 349 345 341 338 335 331 330 328 325 324 325 324
59 59 327 22 49 30 4 23 72 84 98 103 96 94 101 98 93 91 89 94 107 119 121 120 114 105 96 104 111 109 101 99 98 94 89 84 79 74 67 63 74 87 91 91 89 84 77 68 65 62 52 46 45 43 36 29 21 21 24 21 18 18 19 18 15 10 6 2 356 352 350 349 350 350 347 345 341 333 328 325 322 320 319 317 318 320 319
109 224 199 156 111 84 306 306 57 44 74 101 101 96 97 98 103 105 94 88 98 110 123 133 124 111 105 113 113 110 104 104 104 100 95 90 85 86 85 82 86 91 90 90 88 81 69 57 50 49 41 34 29 26 24 19 13 15 17 13 10 13 14 12 9 2 356 353 350 348 348 347 348 347 343 343 341 334 330 327 321 315 312 311 312 313 311
218 219 193 163 133 149 222 239 250 350 34 84 94 95 98 101 109 116 116 108 91 77 87 117 121 120 130 130 119 105 99 109 113 110 110 108 104 105 107 107 106 103 97 94 88 77 65 47 35 33 26 19 17 15 11 3 2 8 11 7 5 8 7 2 358 352 348 346 345 346 347 348 349 346 342 341 342 340 338 335 328 319 313 310 311 311 310
188 182 168 165 140 139 199 222 217 276 64 89 95 101 111 111 113 119 126 140 138 116 98 116 128 133 138 134 124 114 111 119 123 122 125 127 125 124 127 127 127 126 122 112 95 79 61 25 10 8 4 4 7 6 355 345 350 2 5 3 2 3 1 356 351 347 344 342 341 343 345 347 346 343 340 339 338 336 337 337 334 330 328 326 326 326 324
110 104 137 138 113 111 126 135 117 109 113 110 107 122 130 122 128 136 144 157 148 133 125 128 135 137 136 129 124 123 125 127 130 132 136 139 139 141 141 138 135 135 133 124 105 92 326 332 330 335 350 359 3 357 339 328 339 355 359 358 359 358 355 352 347 342 340 337 336 341 344 342 339 337 335 335 333 331 332 336 338 340 341 341 340 337 334
113 113 98 77 77 93 103 95 85 131 138 126 119 126 127 114 118 132 144 159 156 143 140 142 143 142 140 137 133 132 133 136 142 150 154 156 160 164 163 163 173 189 208 259 275 262 265 281 284 295 344 4 5 352 334 324 333 348 350 348 351 351 348 344 340 337 336 334 335 342 344 340 337 335 333 333 332 331 333 336 338 339 341 342 342 340 337
115 117 102 86 72 52 55 128 155 181 157 131 125 127 128 120 115 112 118 134 145 146 146 147 147 147 147 147 146 146 148 155 163 172 177 180 189 201 210 226 240 240 248 273 273 258 253 257 251 259 345 11 8 10 26 346 337 342 342 338 339 341 338 336 334 332 332 332 338 345 344 341 338 335 332 331 330 330 331 331 331 332 334 335 338 339 339
118 116 110 120 140 169 196 163 156 162 160 140 134 131 124 117 114 110 110 121 134 146 154 156 155 155 157 159 159 158 162 170 176 182 191 202 214 220 221 225 230 231 243 266 266 256 254 250 238 245 321 8 5 4 35 320 327 333 331 327 327 327 329 330 330 329 331 332 337 339 337 333 330 327 327 328 329 329 329 327 327 328 328 330 333 337 340
130 127 120 135 152 152 142 136 143 166 185 165 142 132 122 113 109 118 138 150 151 155 164 168 167 166 166 169 171 170 172 181 190 199 210 220 224 224 222 223 225 227 238 258 261 256 256 252 241 247 277 338 353 328 278 282 304 317 320 323 323 321 323 327 329 332 334 332 331 331 327 324 323 324 326 329 330 329 329 328 328 328 328 331 335 337 340
356 45 85 90 101 114 123 141 177 204 210 170 132 121 112 111 124 149 167 172 167 166 170 174 174 173 175 183 191 192 193 201 211 217 222 225 225 225 225 224 223 227 240 260 270 265 257 250 243 250 271 302 321 302 282 281 293 306 314 321 323 319 318 325 331 334 331 329 331 332 326 322 324 326 327 328 330 331 331 332 334 335 335 338 342 339 338
27 33 64 73 73 87 108 164 208 225 238 91 95 96 91 103 132 161 174 177 174 171 170 172 177 187 196 203 210 213 214 219 223 223 225 227 226 225 225 225 229 239 252 268 278 272 257 245 242 250 267 288 288 279 281 285 292 303 311 318 322 319 319 324 331 332 330 330 333 334 333 333 334 331 329 331 335 338 341 342 344 344 343 344 346 342 337
77 49 53 67 71 70 62 38 43 61 72 97 127 168 165 142 156 174 180 182 178 172 171 179 191 200 206 209 211 212 211 214 218 221 225 228 228 228 231 235 242 253 263 270 275 273 264 248 243 250 263 273 270 268 272 275 281 299 313 319 321 318 320 323 324 326 328 328 329 334 338 340 337 333 334 342 349 353 356 356 352 350 350 351 350 346 341
117 99 84 136 90 72 54 32 54 100 164 182 204 219 219 206 189 185 182 180 176 174 179 191 201 206 205 200 197 199 205 215 228 235 239 241 240 240 243 248 253 260 267 271 272 269 260 246 241 248 258 260 257 261 265 264 271 296 313 319 319 318 319 318 313 317 325 325 327 337 341 338 332 331 340 355 6 10 9 6 1 357 358 2 2 357 355
159 181 201 199 174 142 142 162 192 212 222 242 259 248 232 218 204 191 182 178 179 184 194 204 210 208 201 194 197 208 221 234 249 262 270 271 263 252 248 253 260 266 270 274 271 263 252 239 237 245 248 244 248 258 260 256 266 294 309 314 317 318 315 305 294 305 316 318 322 333 339 336 333 337 350 6 16 13 7 7 7 2 360 4 9 8 6
261 244 214 200 188 169 161 165 183 194 186 186 253 251 231 216 204 191 184 185 191 199 208 214 214 206 198 198 208 224 237 252 271 287 295 292 275 257 254 261 266 271 277 280 274 259 240 225 227 235 236 239 250 257 252 247 262 290 304 307 312 316 312 296 285 292 303 311 318 327 333 334 336 345 6 18 18 10 2 6 12 9 2 5 13 17 17
325 257 232 220 192 172 165 167 175 176 169 175 204 218 215 213 212 206 201 202 206 213 217 214 206 200 200 205 218 237 256 275 287 292 294 288 269 257 259 263 265 273 285 287 273 245 222 213 217 222 229 247 257 251 238 239 260 284 296 299 308 317 314 299 288 287 292 305 319 326 327 328 331 350 35 28 20 14 11 15 19 16 12 15 22 24 24
31 8 242 214 184 174 173 173 174 173 173 184 200 209 217 222 225 228 224 220 219 220 217 208 202 203 208 214 228 251 271 281 283 283 282 275 264 260 261 261 264 275 286 289 254 192 189 197 206 220 241 256 252 235 223 235 261 281 290 289 303 318 318 305 293 288 290 306 322 325 319 313 311 77 70 44 28 21 22 24 21 16 18 27 31 32 33
56 62 93 127 151 162 167 174 186 197 207 214 219 229 235 230 229 239 242 233 226 220 214 210 210 213 214 217 231 256 269 270 269 266 260 253 252 254 257 262 268 274 276 269 189 163 176 196 220 246 253 241 221 209 218 246 264 274 277 277 295 316 317 306 294 290 296 316 330 329 317 287 180 114 85 49 24 20 26 27 21 19 32 44 43 44 49
98 100 113 122 130 143 154 167 188 209 228 244 250 251 247 235 227 240 250 244 231 220 215 212 211 210 210 216 232 252 264 265 260 255 251 249 249 253 260 269 274 270 260 238 198 186 193 211 237 250 234 215 211 220 245 260 261 262 261 261 284 312 315 306 294 291 300 321 335 335 324 246 150 116 85 37 15 20 28 28 27 36 53 58 57 59 64
164 155 155 157 162 172 187 199 209 219 233 255 270 270 264 256 247 248 254 249 235 224 220 217 212 208 211 221 234 247 257 260 256 253 252 250 249 256 268 279 277 250 239 228 209 205 212 219 224 226 223 226 241 255 255 248 250 256 251 249 270 305 312 303 292 290 300 322 336 335 323 268 125 106 72 25 16 25 34 35 38 51 64 69 71 73 72
263 215 201 205 210 213 221 235 249 255 252 246 248 259 262 257 248 250 263 262 245 231 226 223 219 215 218 228 240 247 252 255 256 253 249 246 246 252 264 276 275 228 238 233 218 216 223 226 225 230 235 247 268 273 249 233 244 259 250 241 255 293 308 302 291 289 298 318 334 332 318 351 101 110 80 34 29 39 47 43 39 55 76 84 85 82 78
299 288 264 248 243 242 247 257 265 268 266 263 258 251 248 249 249 256 273 279 256 239 233 230 226 225 228 236 245 249 251 255 256 252 249 250 253 255 260 269 291 267 249 236 225 224 233 237 240 243 246 256 274 275 247 232 248 260 249 234 238 271 296 294 287 295 304 307 306 290 250 189 158 151 110 59 51 57 60 48 48 87 100 96 91 88 85
301 300 287 272 266 264 264 267 270 274 280 283 279 266 257 261 268 273 282 282 259 242 239 235 229 227 231 237 245 250 254 259 260 257 256 259 263 263 263 265 273 279 253 233 225 228 239 250 255 251 247 254 268 268 247 240 253 258 244 227 227 248 271 268 266 295 312 298 259 241 218 192 183 174 116 79 75 82 81 73 90 110 110 103 97 95 93
299 310 296 279 272 272 272 272 273 273 278 285 287 282 274 274 276 275 278 280 264 248 243 237 228 226 230 235 242 249 254 258 258 256 256 258 264 267 266 263 258 250 240 233 232 237 247 258 258 246 238 244 261 262 250 248 256 253 236 221 221 233 241 235 238 274 315 274 205 207 210 197 197 190 121 102 107 106 88 92 112 121 118 111 107 104 101
301 313 310 293 278 273 270 268 267 269 274 283 286 283 277 282 287 284 284 286 277 260 247 238 232 230 232 237 243 250 255 257 255 252 249 252 264 276 282 274 260 249 241 237 238 242 250 255 249 236 233 245 262 261 251 251 255 247 228 217 218 226 226 215 213 229 255 125 148 159 156 128 115 98 82 115 128 111 82 96 130 133 124 117 113 110 109
300 305 305 292 281 277 272 264 262 266 274 281 279 267 258 268 283 291 299 301 293 279 261 246 239 239 242 246 250 255 256 254 252 252 252 254 264 280 291 288 277 266 253 242 238 241 247 248 240 234 239 252 261 255 245 243 244 235 222 217 220 225 222 212 207 208 196 144 134 137 135 124 119 114 97 120 124 107 95 143 165 155 140 130 121 110 107
309 310 307 299 293 292 283 267 258 256 256 258 258 257 259 269 280 289 304 309 300 287 271 252 242 244 250 252 251 251 252 250 251 254 255 255 261 271 278 278 282 284 267 246 238 240 243 239 234 236 245 252 252 243 233 228 227 225 222 222 225 227 224 216 208 206 200 182 160 151 148 142 135 131 130 131 131 125 215 211 190 173 162 154 142 126 114
313 313 311 311 310 306 293 272 256 248 244 245 248 253 265 282 284 283 299 310 299 280 264 252 246 250 257 257 252 249 249 249 255 263 264 259 260 266 268 266 274 282 264 242 235 236 234 230 234 243 248 243 234 226 219 214 215 221 225 228 230 231 229 221 213 209 207 201 190 183 182 178 166 154 147 146 148 166 223 233 214 198 188 178 170 163 151
308 308 307 307 308 306 294 273 256 249 251 254 252 252 270 291 278 265 289 314 305 269 249 249 253 259 265 265 258 252 248 249 256 269 277 276 272 268 263 258 262 265 255 244 239 237 234 235 242 246 239 227 218 214 212 214 220 230 234 236 237 236 233 228 221 216 214 211 207 204 204 202 199 193 184 175 173 181 197 214 228 223 207 194 186 177 160
303 300 297 300 306 307 294 275 266 265 268 270 263 251 264 277 266 254 273 307 299 251 230 230 237 249 265 269 263 255 250 249 252 260 271 281 283 273 258 249 251 259 260 253 243 236 236 241 240 231 220 215 214 214 216 225 244 258 258 251 242 236 233 229 224 220 219 219 217 216 216 215 215 214 210 205 206 213 218 223 232 235 226 215 208 198 185
309 303 292 293 299 292 275 269 273 279 283 277 256 235 239 262 272 279 294 277 259 250 244 240 241 249 264 274 272 264 257 253 251 251 258 272 281 273 256 249 251 261 268 258 237 228 233 234 220 209 210 215 215 215 221 237 259 272 270 257 242 236 234 231 225 222 224 226 224 223 223 222 222 224 223 219 219 229 239 240 239 237 236 234 230 227 234
337 334 315 298 294 285 276 270 267 263 253 233 215 197 168 133 48 28 19 347 276 263 266 265 262 261 259 259 261 263 261 258 253 248 249 256 264 263 255 251 251 261 269 258 235 227 229 222 209 206 212 215 211 215 230 249 262 269 267 254 239 234 235 233 229 228 231 231 230 231 231 230 229 232 233 229 227 232 244 249 246 245 248 252 252 255 262